Tracking 19832 objects as of 25-Aug-2019
HD Live streaming from Space Station
objects crossing your sky now

COSMOS 1937

Track COSMOS 1937 now!
10-day predictions
COSMOS 1937 is classified as:


NORAD ID: 19038
Int'l Code: 1988-029A
Perigee: 763.6 km
Apogee: 799.4 km
Inclination: 74.0 °
Period: 100.3 minutes
Semi major axis: 7152 km
RCS: 2.2121 m2 (large)
Launch date: April 5, 1988
Source: Commonwealth of Independent States (former USSR) (CIS)
Launch site: PLESETSK MISSILE AND SPACE COMPLEX (PKMTR)
aabbcc
Your satellite tracking list
Your tracking list is empty




NASA's NSSDC Master Catalog

Two Line Element Set (TLE):
1 19038U 88029A   19237.52788696 -.00000009  00000-0  60520-5 0  9999
2 19038  74.0481 345.0603 0024979 321.3885 121.3568 14.35207762643072
Source of the keplerian elements: AFSPC